Regional Weather Roundup
Issued by NWS

Home | Current Version | Previous Version | Text Only | Print | Product List | Glossary On
Versions: 1 2 3 4 5 6 7 8 9 10 11 12 13 14 15 16 17 18 19 20 21 22 23 24 25 26 27 28 29 30 31 32 33 34 35 36 37 38 39 40 41 42 43 44 45 46 47 48 49 50
000
ASUS44 KBMX 181410
RWRAL

ALABAMA REGIONAL WEATHER ROUNDUP
NATIONAL WEATHER SERVICE BIRMINGHAM AL
800 AM CST WED JAN 18 2017

NOTE: "FAIR" INDICATES FEW OR NO CLOUDS BELOW 12,000 FEET
WITH NO SIGNIFICANT WEATHER AND/OR OBSTRUCTIONS TO VISIBILITY.

THE REMARK "TC" DENOTES TEMPERATURE IN DEGREES CELSIUS.

ALZ001>011-014-016>018-020-181500-
NORTH ALABAMA

CITY           SKY/WX    TMP DP  RH WIND       PRES   REMARKS
MUSCLE SHOALS  CLOUDY    51  45  79 NE3       30.21R
HUNTSVILLE     CLOUDY    53  48  83 N8        30.19R
DECATUR        CLOUDY    52  48  86 N12       30.20R
HALEYVILLE     CLOUDY    51  47  86 N3        30.21R
GADSDEN        LGT RAIN  58  55  90 CALM      30.18R
$$

ALZ012-013-022-023-030>036-040>044-181500-
WEST CENTRAL ALABAMA

CITY           SKY/WX    TMP DP  RH WIND       PRES   REMARKS
TUSCALOOSA     CLOUDY    61  57  87 N3        30.19R
$$

ALZ015-024>027-033>036-040>044-181500-
CENTRAL ALABAMA

CITY           SKY/WX    TMP DP  RH WIND       PRES   REMARKS
BIRMINGHAM     CLOUDY    61  58  90 N6        30.20R
MONTGOMERY     CLOUDY    66  61  84 SW5       30.19R
SHELBY CO ARPT CLOUDY    62  62 100 CALM      30.18R
MAXWELL AFB    PTSUNNY   66  64  94 SW3       30.18R
GREENVILLE     CLOUDY    66  61  84 SW3       30.18R
$$

ALZ019-021-028-029-037-038-045>048-181500-
EAST CENTRAL ALABAMA

CITY           SKY/WX    TMP DP  RH WIND       PRES   REMARKS
ANNISTON       CLOUDY    62  59  90 N7        30.18R
ALEXANDER CITY CLOUDY    70  68  95 CALM      30.18R
AUBURN         CLOUDY    64  62  93 W7        30.19R
$$

ALZ051>064-181500-
SOUTHWEST ALABAMA

CITY           SKY/WX    TMP DP  RH WIND       PRES   REMARKS
MOBILE         CLOUDY    67  65  93 CALM      30.18R FOG
BROOKLEY FIELD FOG       67  67 100 SE5       30.19R VSB 1/4
EVERGREEN      MOSUNNY   64  63  96 CALM      30.18R
$$

ALZ049-050-065>069-181500-
SOUTHEAST ALABAMA

CITY           SKY/WX    TMP DP  RH WIND       PRES   REMARKS
DOTHAN         FOG       63  63 100 W5        30.21R VSB 1/4
OZARK          FOG       63  63 100 CALM      30.18R VSB 1/2
TROY           PTSUNNY   65  65 100 CALM      30.19R FOG
EUFAULA        PTSUNNY   68  62  81 W5        30.17R
$$



USA.gov is the U.S. government's official web portal to all federal, state and local government web resources and services.